Probability
38 40 40 41 41 39 37 34 32 30 29 28 28 30 32 32 33 32 28 24 20 17 14 12 13 16 19 19 18 16 13 11 8 6 9 12 13 12 11 15 18 16 13
37 40 41 41 40 37 34 33 32 31 29 28 28 30 32 33 33 32 29 26 23 20 17 15 16 18 20 20 20 18 15 12 8 7 8 9 11 11 12 15 16 14 13
37 39 40 40 40 37 35 35 34 32 29 28 29 32 35 34 32 31 30 27 25 23 21 19 18 19 20 21 21 21 17 13 11 9 8 8 8 9 13 15 13 12 10
39 41 42 42 43 43 41 39 38 34 31 30 32 35 38 36 33 31 30 28 26 26 24 20 18 17 18 19 20 21 20 17 15 13 10 8 7 10 15 16 12 8 7
44 45 45 45 46 45 43 41 42 38 35 35 36 36 36 33 30 30 29 28 27 28 27 22 17 15 16 15 15 17 19 19 19 16 12 9 9 11 14 14 10 8 7
49 49 47 46 46 46 43 42 44 42 40 40 39 36 32 26 23 23 26 28 30 31 30 25 19 15 15 14 11 9 11 14 14 12 10 9 9 11 12 10 9 9 10
51 50 49 47 47 47 46 46 47 46 44 43 42 39 33 24 16 14 20 26 31 33 32 28 22 17 17 15 11 8 7 7 7 6 7 6 7 10 10 9 8 10 12
51 51 50 48 48 49 50 50 51 50 47 46 46 45 39 25 12 8 14 23 29 31 31 28 25 21 16 13 12 11 11 8 4 2 3 3 4 6 7 7 7 8 11
48 49 50 50 51 53 54 54 54 53 51 49 49 50 43 27 10 4 9 19 25 26 25 23 22 17 11 7 9 12 12 9 5 2 1 1 1 1 2 3 3 4 5
46 48 53 56 57 57 57 56 55 55 54 52 52 52 45 29 10 2 5 14 20 20 17 15 11 8 5 4 7 10 11 9 7 4 3 2 2 1 1 1 2 3 3
47 51 56 58 58 57 57 56 57 57 56 56 55 52 45 29 11 1 2 8 13 14 13 10 6 2 1 2 4 7 8 8 8 7 6 4 3 2 3 4 5 6 7
49 52 56 58 55 53 54 54 55 56 55 55 53 48 40 25 10 2 1 3 6 9 10 7 5 1 0 1 2 3 4 5 5 5 4 3 2 2 3 5 8 9 10
49 50 52 53 51 50 50 48 50 51 49 48 45 40 33 22 11 3 0 0 2 4 5 4 2 1 0 0 0 1 1 2 2 2 1 2 2 2 3 5 8 9 9
50 48 48 48 48 47 45 42 41 42 42 40 38 35 29 22 14 7 3 2 1 2 2 1 1 0 0 0 1 1 1 2 1 0 1 2 3 3 3 4 5 6 6
49 45 42 42 44 43 39 33 30 29 28 28 28 28 25 19 13 8 6 4 3 2 2 2 2 2 2 2 3 3 3 3 3 3 4 5 4 3 3 3 4 4 4
47 42 37 37 39 39 34 27 20 15 12 11 13 15 15 11 7 5 5 4 3 3 3 4 5 5 5 5 5 6 5 5 5 7 8 7 5 3 3 4 4 3 2
42 38 34 34 36 35 31 25 19 11 5 2 2 4 4 3 3 2 2 3 3 3 3 4 5 6 7 7 6 6 6 6 8 9 10 9 7 4 4 4 5 4 2
36 34 32 34 34 32 29 25 21 18 13 7 3 1 0 1 1 1 1 2 3 3 3 3 4 6 7 6 5 4 4 6 8 9 9 9 8 5 4 4 4 4 3
32 30 31 32 31 28 24 21 20 19 18 14 8 3 1 1 1 1 1 2 3 3 3 3 3 4 5 5 4 4 4 6 8 8 8 8 6 5 3 3 3 2 2
29 26 25 26 25 21 19 19 18 17 16 14 11 5 3 2 2 2 2 3 3 3 3 3 4 4 4 4 4 4 5 5 6 6 5 3 2 2 2 3 2 1 1
22 20 17 18 20 18 17 18 19 16 13 12 9 6 4 3 3 3 3 3 3 3 4 4 5 6 6 5 5 4 4 4 5 4 2 0 0 1 1 2 2 1 1
15 15 14 15 17 17 16 18 19 15 12 10 8 5 3 3 3 4 4 4 4 4 5 5 6 6 6 6 5 4 3 2 2 2 1 0 0 0 0 1 1 0 1
10 11 12 13 14 14 14 15 15 12 10 9 7 4 2 2 3 4 5 5 5 5 4 4 5 6 5 5 4 4 2 1 0 1 1 0 0 0 0 0 0 0 0
6 7 8 9 11 12 12 11 10 9 10 10 7 3 0 1 2 3 3 4 4 4 3 3 3 3 3 3 3 2 1 0 0 0 1 1 1 1 0 0 0 0 0
4 4 5 7 8 10 10 9 7 8 9 9 7 3 0 0 1 1 1 2 2 2 2 2 1 1 1 1 1 1 0 0 0 0 1 1 2 2 1 0 0 0 0
3 3 5 6 7 8 9 9 7 6 7 8 7 4 1 0 0 0 0 1 1 1 1 1 0 0 0 0 0 0 0 0 0 0 0 1 2 2 1 0 0 0 0
Wind_Speed
6 5 5 5 5 4 3 2 2 1 1 2 2 2 2 2 2 1 1 1 1 1 1 1 1 2 2 3 3 2 2 1 2 2 2 1 1 1 1 1 2 3 4
7 6 5 5 5 5 4 3 3 2 2 2 2 2 2 2 2 2 2 1 1 0 1 1 2 1 2 2 2 3 3 2 2 3 3 2 2 1 1 2 2 2 2
8 7 6 6 5 5 4 4 3 3 2 2 2 2 2 2 2 2 1 1 1 0 1 1 1 1 2 2 2 2 2 3 1 2 3 2 1 2 2 2 2 1 1
7 7 6 6 5 5 4 4 4 3 3 3 3 3 3 2 2 1 1 1 1 0 1 1 1 1 1 2 2 2 2 2 2 2 2 2 1 1 1 1 1 1 1
6 6 6 5 4 4 4 4 4 3 3 3 3 3 3 3 2 2 2 2 2 1 1 1 0 1 1 2 2 2 3 2 2 2 2 2 1 1 1 2 1 1 1
5 5 5 5 4 4 4 4 4 3 3 3 3 3 3 3 1 3 2 2 2 2 1 1 2 1 1 0 1 2 2 2 2 2 2 2 2 2 2 3 2 2 2
4 4 5 5 5 4 5 4 4 4 3 3 3 3 2 1 2 3 2 2 2 2 2 2 2 0 1 1 1 2 2 3 4 3 2 3 3 2 3 3 3 3 3
4 4 4 5 5 4 4 4 4 3 3 3 3 3 3 3 3 3 2 2 2 2 1 1 1 1 1 2 2 2 2 2 3 3 3 3 3 2 2 3 3 3 2
4 4 4 4 4 5 4 4 3 3 3 3 3 3 3 3 4 3 2 2 2 2 2 1 0 1 1 2 2 2 2 3 3 3 3 3 3 3 2 2 2 2 3
3 3 4 4 4 4 4 4 3 3 3 3 3 3 4 3 4 4 3 2 2 2 1 1 1 1 1 0 2 2 3 3 4 4 4 5 5 4 4 3 2 2 2
2 3 3 3 4 4 4 3 3 4 3 3 3 3 3 4 5 5 4 2 2 2 2 1 1 2 2 1 1 3 4 4 4 4 4 3 2 1 1 2 2 2 2
1 2 3 3 3 3 3 3 3 4 3 4 3 3 2 3 4 5 5 3 3 2 1 0 2 2 2 2 2 4 5 5 4 3 3 2 1 1 1 0 1 1 1
1 2 2 3 3 3 3 4 3 3 3 3 3 3 2 2 3 5 5 3 2 1 1 0 2 3 3 3 5 6 4 3 3 3 3 2 1 1 1 1 1 1 1
2 2 2 2 3 2 2 3 3 3 3 3 3 3 2 3 2 2 2 2 1 1 1 1 3 5 5 4 3 3 3 3 3 2 2 2 1 1 1 1 1 1 0
2 2 2 3 3 1 1 0 1 1 2 3 2 1 2 2 3 3 2 1 1 1 1 2 2 2 2 2 1 1 1 1 2 2 2 2 1 1 2 1 1 1 1
2 2 3 2 2 2 3 2 4 2 2 3 2 1 2 3 6 4 3 2 2 2 2 2 2 2 2 2 1 1 1 2 2 2 2 1 1 2 2 1 1 1 1
2 2 2 2 2 2 2 2 2 2 2 3 2 2 4 5 5 4 3 1 2 2 2 3 3 2 2 2 2 2 2 2 2 2 2 2 1 2 2 1 1 1 1
2 2 2 1 1 1 2 2 2 2 2 2 1 3 5 6 5 4 3 2 1 2 3 3 3 2 2 2 2 2 2 2 2 2 2 2 1 2 2 2 2 2 2
2 2 1 1 1 1 1 1 2 2 1 2 2 2 3 4 3 3 4 3 3 3 3 2 2 2 2 1 2 1 2 2 2 2 2 1 1 1 2 2 2 3 2
1 1 2 2 2 1 1 1 1 1 1 1 1 2 3 3 3 3 4 4 3 2 2 2 2 2 1 1 1 1 2 1 1 2 2 2 2 1 2 3 3 3 2
2 1 2 2 2 1 1 2 2 1 1 1 1 2 5 3 3 3 3 3 3 3 2 2 1 2 1 1 1 2 2 2 1 2 2 2 2 2 2 2 3 3 3
2 2 2 1 1 1 2 2 2 1 1 1 1 2 5 3 2 2 2 2 2 1 1 1 2 2 1 1 1 1 2 2 2 2 2 2 2 3 2 2 2 2 3
3 3 2 1 1 1 2 2 1 1 1 1 0 1 2 2 2 1 1 2 1 1 1 1 2 1 1 1 0 1 2 2 2 2 2 2 3 2 2 2 2 3 3
3 3 2 1 1 2 2 2 2 2 2 1 0 1 2 2 2 2 2 2 1 1 1 1 1 2 2 1 1 1 1 2 3 2 2 3 3 3 2 2 2 3 3
2 2 2 2 2 1 1 1 2 2 2 1 1 2 2 2 2 2 2 2 2 2 2 1 1 2 2 1 2 1 2 2 2 3 2 3 3 3 3 4 3 3 3
2 2 2 1 1 2 1 1 2 2 2 2 2 2 2 2 2 2 2 2 2 2 2 2 2 2 2 2 0 2 3 2 2 2 3 3 3 3 3 3 5 4 4
Wind_Direction
172 172 173 177 180 181 186 174 167 177 192 179 175 175 198 221 213 199 237 235 217 282 317 346 342 335 336 335 343 330 336 339 290 297 310 319 325 310 115 222 204 184 189
171 169 177 176 177 182 180 173 170 172 192 179 177 187 210 215 214 213 237 250 253 288 322 342 332 333 352 339 335 332 337 330 302 298 301 310 309 313 235 238 250 237 202
171 171 176 180 181 181 176 173 176 180 191 187 187 196 216 224 212 213 213 227 265 303 309 316 318 348 337 327 318 323 326 324 303 286 291 293 296 329 306 280 277 289 271
172 173 177 184 183 181 176 175 178 182 190 191 200 208 208 207 203 201 212 208 207 250 267 285 310 337 327 324 315 321 309 308 295 286 280 271 274 288 281 287 297 304 296
169 176 181 184 181 179 177 180 180 189 201 189 200 216 210 200 208 191 213 208 197 215 226 224 129 78 356 320 311 326 323 308 299 299 298 307 317 331 315 300 288 282 274
171 177 173 175 181 184 181 185 186 191 200 195 205 213 223 231 191 160 188 227 209 208 209 221 191 165 128 345 343 330 306 288 303 304 301 308 312 321 327 311 304 300 292
171 176 172 177 184 188 191 187 194 195 199 202 206 208 201 177 137 141 166 211 227 212 217 247 273 188 82 332 301 301 308 286 254 249 276 287 293 301 303 301 301 291 276
175 180 180 184 187 186 191 195 197 196 204 210 211 205 187 175 168 163 177 209 231 223 219 249 278 10 352 355 320 336 313 303 274 251 255 272 291 304 289 278 275 291 281
182 184 186 188 190 187 193 197 196 199 205 212 207 192 177 173 183 173 175 216 229 236 217 251 241 117 46 0 311 307 312 315 303 299 273 260 269 292 294 302 296 292 294
184 186 189 189 195 195 194 194 195 201 210 215 205 178 169 165 176 171 188 219 219 222 194 158 106 142 150 358 299 299 297 303 312 301 287 272 258 256 249 239 259 273 289
180 176 186 191 197 194 189 189 194 211 215 211 191 178 177 167 173 177 183 242 250 231 211 197 159 160 187 215 276 286 279 289 288 283 275 271 261 249 223 215 227 241 260
162 180 187 193 211 196 187 198 205 217 211 205 191 186 176 152 156 167 180 216 300 287 260 179 130 157 211 239 255 267 278 289 280 282 284 284 285 286 285 197 201 218 221
194 211 204 201 209 196 191 199 201 209 211 209 192 194 176 151 155 171 186 206 272 289 300 199 181 209 231 243 243 253 268 267 269 276 286 293 305 305 295 277 244 208 238
216 220 203 206 216 213 204 200 201 207 214 209 203 208 177 164 155 162 191 208 230 263 290 268 228 237 253 259 251 245 242 258 266 269 278 286 293 304 303 297 291 265 258
239 235 224 219 210 194 163 131 196 193 208 205 214 184 164 170 165 162 166 192 231 233 238 252 250 246 241 238 244 260 264 260 266 272 274 278 292 305 299 303 320 330 336
244 247 238 225 191 183 161 106 41 56 80 100 98 135 135 143 149 156 175 200 214 181 187 239 250 251 252 256 244 238 237 248 269 275 283 285 281 278 282 294 299 288 292
247 261 259 238 198 192 182 170 154 97 77 75 101 140 158 158 161 173 182 181 229 181 213 237 242 240 246 258 257 253 251 260 266 276 273 269 284 295 292 281 269 262 263
254 262 273 262 244 203 203 198 186 182 173 165 142 163 170 173 179 188 175 148 223 223 235 241 248 248 239 239 243 247 252 255 264 267 260 259 264 280 292 289 275 267 264
264 267 276 274 268 251 235 231 217 212 190 156 141 153 179 182 196 208 190 216 234 232 239 246 254 263 258 249 260 260 259 247 253 268 263 258 262 272 280 284 285 277 272
259 251 258 269 262 262 265 272 266 234 203 152 167 163 156 168 186 195 210 229 240 244 248 248 254 259 262 253 260 270 270 272 273 276 280 260 254 259 263 271 283 284 278
296 266 237 245 250 268 281 277 271 266 255 214 204 161 167 200 209 201 199 211 228 237 248 264 264 264 262 270 282 287 288 284 280 283 286 282 272 265 270 273 271 275 282
303 285 271 262 245 247 260 260 256 245 247 247 240 162 174 209 225 207 211 219 234 230 221 233 255 263 266 271 275 289 294 294 286 286 292 287 280 274 268 268 274 281 289
278 276 272 290 296 270 260 266 264 259 262 263 200 163 185 222 249 251 238 235 234 248 250 266 280 286 290 303 339 329 304 295 297 306 304 300 293 286 282 273 265 276 282
288 293 288 277 261 257 268 270 270 266 266 259 223 186 190 213 236 246 256 263 253 246 239 249 268 288 298 315 341 344 5 353 341 328 320 304 300 302 302 294 281 275 271
277 287 281 280 283 275 273 279 283 284 270 247 223 217 216 216 227 228 237 244 243 248 254 248 250 268 269 286 309 354 50 46 24 342 316 301 291 287 292 286 275 266 266
267 270 274 292 303 300 296 287 280 277 268 251 233 229 234 235 235 233 245 254 259 260 262 260 263 273 272 259 308 83 97 84 52 350 306 289 288 281 283 283 283 279 271